Date String (YYYY-MM-DD hh:mm:ss) UTC,Instrument flags,absolute air pressure of the measurement (hPa),sample flow rate (lpm),inlet stack bypass flow (lpm),air temperature of the measurement (°C),ambient temperature measured by the external sensor (°C),aerosol sample conditioner tube jacket temperature (°C),OPC LED temperature (°C),internal box temperature (°C),relative humidity of the measurement (%),span deviation,mass concentration of particles derived from Lorenz-Mie calculation of OPC scattering (μg/m³),mass concentration of particles derived from Lorenz-Mie calculation of OPC scattering (μg/m³),mass concentration of particles derived from Lorenz-Mie calculation of OPC scattering (μg/m³)
DateTimeUTC,F1_M11,P_M11,Q1_M11,Q2_M11,T1_M11,T2_M11,T3_M11,T4_M11,T5_M11,U1_M11,ZSPAN_M11,X2_M11,X0_M11,X1_M11
2023-10-27 21:00:00,SystemResetWarning,0831.1,5.00,000.00,022.8,022.0,000.0,031.0,024.6,15.7,0000.6,0008.42,0013.98,0007.88
2023-10-27 21:01:00,SystemResetWarning,0831.1,5.00,000.00,022.8,022.1,000.0,031.0,024.6,15.6,0001.1,0013.46,0328.96,0008.06
2023-10-27 21:02:00,SystemResetWarning,0831.1,5.00,000.00,022.9,022.1,000.0,031.0,024.6,15.6,0001.1,0013.96,0359.92,0008.06
2023-10-27 21:03:00,SystemResetWarning,0831.2,5.00,000.00,022.9,022.1,000.0,031.0,024.7,15.6,0001.0,0013.95,0359.97,0008.04
2023-10-27 21:04:00,SystemResetWarning,0831.0,5.00,000.00,022.9,022.1,000.0,031.1,024.7,15.5,0001.0,0013.91,0362.06,0008.01
2023-10-27 21:05:00,SystemResetWarning,0831.0,5.00,000.00,022.9,022.1,000.0,031.1,024.7,15.4,0000.8,0013.89,0362.28,0007.98
2023-10-27 21:06:00,SystemResetWarning,0830.9,5.00,000.00,023.0,022.1,000.0,031.1,024.7,15.5,0001.1,0013.89,0361.87,0007.98
2023-10-27 21:07:00,SystemResetWarning,0831.0,5.00,000.00,023.0,022.2,000.0,031.1,024.7,15.5,0000.8,0013.92,0361.99,0007.98
2023-10-27 21:08:00,SystemResetWarning,0831.1,5.00,000.00,023.0,022.2,000.0,031.1,024.8,15.3,0000.9,0013.92,0362.33,0007.97
2023-10-27 21:09:00,SystemResetWarning,0831.1,5.00,000.00,023.0,022.2,000.0,031.2,024.8,15.2,0000.8,0013.91,0363.01,0007.97
2023-10-27 21:10:00,SystemResetWarning,0830.9,5.00,000.00,023.1,022.3,000.0,031.2,024.8,15.2,0001.0,0013.94,0363.04,0007.97
2023-10-27 21:11:00,SystemResetWarning,0830.9,5.00,000.00,023.1,022.3,000.0,031.2,024.9,15.2,0000.8,0013.96,0363.04,0007.96
2023-10-27 21:12:00,SystemResetWarning,0830.9,5.00,000.00,023.1,022.3,000.0,031.2,024.9,15.2,0000.3,0010.10,0120.85,0007.81
2023-10-27 21:13:00,SystemResetWarning,0831.0,5.00,000.00,023.1,022.4,000.0,031.3,024.9,15.2,0000.5,0008.42,0016.88,0007.78
2023-10-27 21:14:00,SystemResetWarning,0831.0,5.00,000.00,023.2,022.4,000.0,031.3,024.9,15.2,0000.8,0008.46,0016.99,0007.81
2023-10-27 21:15:00,SystemResetWarning,0830.9,5.00,000.00,023.2,022.4,000.0,031.3,024.9,15.1,0000.8,0008.52,0015.11,0007.86
2023-10-27 21:16:00,SystemResetWarning,0831.0,5.00,000.00,023.2,022.4,000.0,031.4,025.0,15.0,0000.9,0008.57,0014.76,0007.90
2023-10-27 21:17:00,SystemResetWarning,0831.0,5.00,000.00,023.2,022.4,000.0,031.4,024.9,14.9,0000.3,0008.62,0014.63,0007.94
2023-10-27 21:18:00,SystemResetWarning,0831.0,4.99,000.00,023.2,022.4,000.0,031.4,025.0,14.9,0000.3,0008.67,0014.77,0007.99
2023-10-27 21:19:00,SystemResetWarning,0831.0,5.00,000.00,023.3,022.4,000.0,031.4,025.0,14.9,0000.5,0008.70,0014.80,0008.02
2023-10-27 21:20:00,SystemResetWarning,0830.9,5.00,000.00,023.3,022.5,000.0,031.4,025.0,14.9,0000.3,0008.75,0014.36,0008.05
2023-10-27 21:21:00,SystemResetWarning,0831.0,5.01,000.00,023.3,022.5,000.0,031.5,025.0,14.9,0000.5,0008.77,0014.36,0008.08
2023-10-27 21:22:00,SystemResetWarning,0831.0,5.01,000.00,023.3,022.5,000.0,031.5,025.1,14.9,0000.8,0008.77,0014.30,0008.12
2023-10-27 21:23:00,SystemResetWarning,0831.0,5.00,000.00,023.4,022.5,000.0,031.5,025.1,14.9,0001.0,0008.81,0015.04,0008.13
2023-10-27 21:24:00,SystemResetWarning,0831.1,5.00,000.00,023.4,022.5,000.0,031.5,025.1,15.0,0001.1,0008.86,0013.98,0008.16
2023-10-27 21:25:00,SystemResetWarning,0831.0,4.99,000.00,023.4,022.5,000.0,031.6,025.1,14.9,0000.6,0008.87,0014.01,0008.19
2023-10-27 21:26:00,SystemResetWarning,0830.9,5.00,000.00,023.4,022.5,000.0,031.6,025.1,14.8,0000.2,0008.91,0014.52,0008.23
2023-10-27 21:27:00,SystemResetWarning,0830.9,5.00,000.00,023.4,022.6,000.0,031.6,025.2,14.7,-000.0,0008.97,0014.79,0008.27
2023-10-27 21:28:00,SystemResetWarning,0830.9,5.00,000.00,023.5,022.6,000.0,031.6,025.2,14.5,-000.2,0009.00,0014.78,0008.32
2023-10-27 21:29:00,SystemResetWarning,0831.0,5.01,000.00,023.5,022.6,000.0,031.7,025.2,14.4,0000.1,0009.02,0014.63,0008.35
2023-10-27 21:30:00,SystemResetWarning,0831.0,5.00,000.00,023.5,022.6,000.0,031.7,025.2,14.3,0000.5,0009.09,0014.37,0008.43
2023-10-27 21:31:00,SystemResetWarning,0831.1,5.00,000.00,023.5,022.6,000.0,031.7,025.2,14.4,0001.2,0009.09,0013.88,0008.47
2023-10-27 21:32:00,SystemResetWarning,0831.1,4.99,000.00,023.5,022.7,000.0,031.7,025.2,14.4,0001.2,0009.12,0013.78,0008.52
2023-10-27 21:33:00,SystemResetWarning,0831.0,4.99,000.00,023.6,022.7,000.0,031.7,025.2,14.4,0001.2,0009.16,0013.83,0008.56
2023-10-27 21:34:00,SystemResetWarning,0830.9,4.99,000.00,023.6,022.6,000.0,031.8,025.2,14.4,0001.0,0009.18,0013.12,0008.62
2023-10-27 21:35:00,SystemResetWarning,0830.9,5.00,000.00,023.6,022.6,000.0,031.8,025.2,14.3,0000.9,0009.20,0013.58,0008.65
2023-10-27 21:36:00,SystemResetWarning,0830.9,5.00,000.00,023.6,022.6,000.0,031.8,025.2,14.3,0001.2,0009.21,0013.67,0008.66
2023-10-27 21:37:00,SystemResetWarning,0831.0,5.01,000.00,023.6,022.6,000.0,031.8,025.2,14.3,0001.5,0009.21,0012.90,0008.66
2023-10-27 21:38:00,SystemResetWarning,0830.9,5.01,000.00,023.6,022.6,000.0,031.8,025.3,14.3,0001.7,0009.16,0013.06,0008.63
2023-10-27 21:39:00,SystemResetWarning,0831.0,5.01,000.00,023.6,022.7,000.0,031.8,025.3,14.3,0002.1,0009.15,0013.54,0008.62
2023-10-27 21:40:00,SystemResetWarning,0830.9,5.00,000.00,023.6,022.7,000.0,031.9,025.3,14.4,0002.0,0009.15,0013.52,0008.62
2023-10-27 21:41:00,SystemResetWarning,0830.9,5.00,000.00,023.6,022.7,000.0,031.9,025.3,14.3,0001.8,0009.11,0013.44,0008.60
2023-10-27 21:42:00,SystemResetWarning,0830.9,5.00,000.00,023.7,022.7,000.0,031.9,025.4,14.2,0001.7,0009.11,0013.80,0008.58
2023-10-27 21:43:00,SystemResetWarning,0830.9,5.00,000.00,023.7,022.7,000.0,031.9,025.4,14.3,0001.3,0009.11,0014.04,0008.57
2023-10-27 21:44:00,SystemResetWarning,0830.9,5.00,000.00,023.7,022.8,000.0,031.9,025.4,14.4,0001.1,0009.09,0014.21,0008.54
2023-10-27 21:45:00,SystemResetWarning,0831.0,4.99,000.00,023.7,022.8,000.0,031.9,025.4,14.3,0001.0,0009.10,0014.36,0008.50
2023-10-27 21:46:00,SystemResetWarning,0831.1,4.99,000.00,023.7,022.8,000.0,032.0,025.4,14.1,0000.9,0009.08,0013.89,0008.49
2023-10-27 21:47:00,SystemResetWarning,0831.1,5.00,000.00,023.7,022.8,000.0,032.0,025.4,14.2,0000.7,0009.04,0013.58,0008.47
2023-10-27 21:48:00,SystemResetWarning,0831.1,5.01,000.00,023.7,022.8,000.0,032.0,025.4,14.2,0000.6,0009.04,0013.53,0008.46
2023-10-27 21:49:00,SystemResetWarning,0831.0,5.01,000.00,023.7,022.8,000.0,032.0,025.5,14.1,0000.5,0009.03,0013.13,0008.46
2023-10-27 21:50:00,SystemResetWarning,0831.0,5.00,000.00,023.8,022.8,000.0,032.0,025.5,14.0,0000.5,0009.03,0013.25,0008.44
2023-10-27 21:51:00,SystemResetWarning,0830.9,4.99,000.00,023.8,022.8,000.0,032.0,025.5,13.8,0000.8,0009.01,0014.14,0008.43
2023-10-27 21:52:00,SystemResetWarning,0830.9,4.99,000.00,023.8,022.9,000.0,032.0,025.5,13.8,0000.7,0009.01,0014.11,0008.40
2023-10-27 21:53:00,SystemResetWarning,0830.9,5.00,000.00,023.8,022.9,000.0,032.1,025.5,13.9,0000.7,0008.96,0014.01,0008.37
2023-10-27 21:54:00,SystemResetWarning,0830.9,5.00,000.00,023.8,022.9,000.0,032.1,025.5,13.8,0000.5,0008.92,0013.85,0008.34
2023-10-27 21:55:00,SystemResetWarning,0830.9,5.01,000.00,023.9,022.9,000.0,032.1,025.5,13.8,0000.8,0008.89,0013.65,0008.34
2023-10-27 21:56:00,SystemResetWarning,0830.9,5.01,000.00,023.9,022.9,000.0,032.1,025.5,13.7,0001.0,0008.87,0013.52,0008.33
2023-10-27 21:57:00,SystemResetWarning,0830.9,5.00,000.00,023.9,022.9,000.0,032.1,025.5,13.6,0001.3,0008.86,0014.31,0008.32
2023-10-27 21:58:00,SystemResetWarning,0831.0,4.99,000.00,023.9,022.9,000.0,032.1,025.5,13.7,0001.5,0008.85,0014.39,0008.32
2023-10-27 21:59:00,SystemResetWarning,0831.0,4.99,000.00,023.9,022.9,000.0,032.1,025.5,13.8,0001.3,0008.83,0014.99,0008.30
